This is the latest recevied weather packets stored in our database for station/object OE9XVI-6. If no packets are shown the sender has not sent any weather packets the latest 10 day(s).
| Time | Temp. | Humidity | Pressure | Rain* | Wind** | Luminosity | Snow |
|---|---|---|---|---|---|---|---|
| 1777202239 | 13.33° C | 55% | 1023 hPa | 180.85 mm | - | - | - |
| 1777201639 | 12.78° C | 55% | 1023 hPa | 180.85 mm | - | - | - |
| 1777201039 | 12.78° C | 55% | 1023.1 hPa | 180.85 mm | - | - | - |
| 1777200439 | 12.22° C | 57% | 1023.2 hPa | 180.85 mm | - | - | - |
| 1777199839 | 12.22° C | 55% | 1023.1 hPa | 0 mm | - | - | - |
| 1777199239 | 12.22° C | 56% | 1023 hPa | 0 mm | - | - | - |
| 1777198639 | 11.67° C | 55% | 1023 hPa | 0 mm | - | - | - |
| 1777198039 | 12.22° C | 100% | 1023.1 hPa | 0 mm | - | - | - |
| 1777197439 | 11.67° C | 100% | 1023.2 hPa | 0 mm | - | - | - |
| 1777196839 | 11.11° C | 50% | 1023.2 hPa | 0 mm | - | - | - |
| 1777196239 | 11.11° C | 54% | 1023.3 hPa | 0 mm | - | - | - |
| 1777195639 | 11.67° C | 53% | 1023.2 hPa | 0 mm | - | - | - |
| 1777195039 | 11.67° C | 54% | 1023.3 hPa | 0 mm | - | - | - |
| 1777194439 | 12.22° C | 56% | 1023.3 hPa | 0 mm | - | - | - |
| 1777193239 | 12.22° C | 55% | 1023.3 hPa | 0 mm | - | - | - |
| 1777192639 | 12.22° C | 53% | 1023.2 hPa | 0 mm | - | - | - |
| 1777192039 | 11.67° C | 55% | 1023.2 hPa | 0 mm | - | - | - |
| 1777191439 | 11.67° C | 56% | 1023.2 hPa | 0 mm | - | - | - |
| 1777190839 | 11.11° C | 54% | 1023.2 hPa | 0 mm | - | - | - |
| 1777190239 | 11.67° C | 59% | 1023.2 hPa | 0 mm | - | - | - |
| 1777189639 | 11.11° C | 57% | 1023.2 hPa | 0 mm | - | - | - |
| 1777189039 | 10° C | 57% | 1023.2 hPa | 0 mm | - | - | - |
| 1777188439 | 10° C | 57% | 1023.2 hPa | 0 mm | - | - | - |
| 1777187839 | 10° C | 60% | 1023.2 hPa | 0 mm | - | - | - |
| 1777187239 | 9.44° C | 60% | 1023.1 hPa | 0 mm | - | - | - |
* Rain latest hour (hover to see other rain measurements)
** Current wind speed in m/s (hover to see current wind gust speed)